Weather Roundup
Issued by NWS Chicago, IL

Home | Current Version | Previous Version | Text Only | Print | Product List | Glossary Off
Versions: 1 2 3 4 5 6 7 8 9 10 11 12 13 14 15 16 17 18 19 20 21 22 23 24 25 26 27 28 29 30 31 32 33 34 35 36 37 38 39 40 41 42 43 44 45 46 47 48 49 50

000
NZUS59 KLOT 310208
HRRLOT

CHICAGO AREA WEATHER ROUNDUP
NATIONAL WEATHER SERVICE CHICAGO/ROMEOVILLE IL
900 PM CDT SUN AUG 30 2015

NOTE: "FAIR" INDICATES FEW OR NO CLOUDS BELOW 12,000 FEET WITH NO
SIGNIFICANT WEATHER AND/OR OBSTRUCTIONS TO VISIBILITY.

* THESE STATIONS ARE NOT UNDER NWS QUALITY CONTROL. THEY ALSO MAY NOT
  REPORT WEATHER SUCH AS PRECIPITATION OR FOG.

ILZ005-006-012>014-019>023-310300-
NORTHEAST ILLINOIS

CITY           SKY/WX    TMP DP  RH WIND       PRES   REMARKS
OHARE          CLEAR     68  63  84 E6        30.04R
MIDWAY         CLEAR     70  64  81 SE6       30.04R
AURORA         CLEAR     66  63  90 CALM      30.04R
LANSING*       PTCLDY    67  65  93 CALM      30.05R FOG
JOLIET*        CLEAR     67  65  92 CALM      30.04R
WAUKEGAN       CLEAR     62  61  96 S3        30.03R FOG
DUPAGE AIRPORT CLEAR     65  62  90 CALM      30.03R
WHEELING       CLEAR     65  62  90 CALM      30.05R
KANKAKEE*      CLEAR     69  67  93 CALM      30.05R
MORRIS*        CLEAR     69  65  88 CALM      30.03R
LEWIS AIRPORT* CLEAR     69  63  81 CALM      30.05R
NORTHERLY IS     N/A     68  65  90 E5          N/A
$$

WIZ051-052-058>065-066-070>072-310300-
SOUTHEAST WISCONSIN

CITY           SKY/WX    TMP DP  RH WIND       PRES   REMARKS
MILWAUKEE      CLEAR     64  61  90 S6        30.03R FOG
KENOSHA*       CLEAR     64  62  93 S6        30.05R FOG
RACINE*        CLEAR     64  61  90 S6        30.06R FOG
BURLINGTON     CLEAR     61  60  97 SW3       30.04R
WAUKESHA       CLEAR     64  63  94 CALM      30.04R
WEST BEND      CLEAR     63  61  94 CALM      30.03R FOG
$$

INZ001>003-010>013-019-020-310300-
NORTHWEST INDIANA

CITY           SKY/WX    TMP DP  RH WIND       PRES   REMARKS
GARY*          CLEAR     70  64  83 CALM      30.05R
MICHIGAN CITY* NOT AVBL
RENSSELAER*    NOT AVBL
VALPARAISO       N/A     67  65  93 NE3       30.06R
$$

LMZ740>746-310300-
SOUTHERN LAKE MICHIGAN

STATION/POSITION TIME  SKY/WX   TEMP WIND        PRES    VSBY
                                AIR  DIR/SP/G
                 (UTC)          (F)  (DEG/KT/KT) (MB)    (MI)
HARRISON CRIB    0100            68   90/  6/  6   N/A
BURNHAM HARBOR   0200            68  100/  4/  5   N/A
CALUMET HARBOR   NOT AVBL
BURNS HARBOR     0100            69   60/  8/  9 1017.3R
MICHIGAN CITY    0100            69   30/  7/  8   N/A
$$

ABBREVIATIONS USED IN REMARKS
   TC - TEMPERATURE IN CELSIUS
  WCI - WIND CHILL INDEX
   HX - HEAT INDEX
  VSB - VISIBILITY
$$


USA.gov is the U.S. government's official web portal to all federal, state and local government web resources and services.